This is the latest recevied weather packets stored in our database for station/object K6GMW. If no packets are shown the sender has not sent any weather packets the latest 10 day(s).
| Time | Temp. | Humidity | Pressure | Rain* | Wind** | Luminosity | Snow |
|---|---|---|---|---|---|---|---|
| 1788307248 | 36.11° C | 41% | 1014.7 hPa | 0 mm | - | 43 W/m² | - |
| 1788306947 | 36.11° C | 41% | 1014.7 hPa | 0 mm | - | 48 W/m² | - |
| 1788306643 | 36.11° C | 40% | 1014.4 hPa | 0 mm | - | 53 W/m² | - |
| 1788306341 | 36.67° C | 40% | 1014.5 hPa | 0 mm | - | 60 W/m² | - |
| 1788306037 | 36.67° C | 39% | 1014.5 hPa | 0 mm | - | 66 W/m² | - |
| 1788305737 | 36.67° C | 40% | 1014.6 hPa | 0 mm | - | 73 W/m² | - |
| 1788305433 | 36.67° C | 40% | 1014.5 hPa | 0 mm | - | 81 W/m² | - |
| 1788305128 | 36.67° C | 40% | 1014.5 hPa | 0 mm | - | 93 W/m² | - |
| 1788304823 | 37.22° C | 39% | 1014.7 hPa | 0 mm | - | 112 W/m² | - |
| 1788304519 | 37.22° C | 38% | 1014.7 hPa | 0 mm | - | 127 W/m² | - |
| 1788304216 | 37.22° C | 38% | 1014.5 hPa | 0 mm | - | 144 W/m² | - |
| 1788303916 | 37.22° C | 38% | 1014.7 hPa | 0 mm | - | 155 W/m² | - |
| 1788303611 | 37.22° C | 38% | 1014.5 hPa | 0 mm | - | 172 W/m² | - |
| 1788303306 | 37.22° C | 38% | 1014.6 hPa | 0 mm | - | 192 W/m² | - |
| 1788303006 | 37.22° C | 38% | 1014.4 hPa | 0 mm | - | 208 W/m² | - |
| 1788302701 | 37.22° C | 38% | 1014.6 hPa | 0 mm | - | 227 W/m² | - |
| 1788302397 | 37.22° C | 36% | 1014.5 hPa | 0 mm | - | 252 W/m² | - |
| 1788302093 | 37.78° C | 38% | 1014.5 hPa | 0 mm | - | 279 W/m² | - |
| 1788301788 | 37.78° C | 37% | 1014.5 hPa | 0 mm | - | 299 W/m² | - |
| 1788301506 | 37.78° C | 37% | 1014.6 hPa | 0 mm | - | 321 W/m² | - |
| 1788301180 | 37.22° C | 38% | 1014.5 hPa | 0 mm | - | 347 W/m² | - |
| 1788300876 | 37.22° C | 38% | 1014.8 hPa | 0 mm | - | 367 W/m² | - |
| 1788300576 | 37.22° C | 38% | 1014.7 hPa | 0 mm | - | 386 W/m² | - |
| 1788300275 | 37.78° C | 38% | 1014.7 hPa | 0 mm | - | 405 W/m² | - |
| 1788299974 | 37.78° C | 37% | 1014.7 hPa | 0 mm | - | 418 W/m² | - |
* Rain latest hour (hover to see other rain measurements)
** Current wind speed in m/s (hover to see current wind gust speed)